Regional Weather Roundup
Issued by NWS

Home | Current Version | Previous Version | Graphics & Text | Print | Product List | Glossary On
Versions: 1 2 3 4 5 6 7 8 9 10 11 12 13 14 15 16 17 18 19 20 21 22 23 24 25 26 27 28 29 30 31 32 33 34 35 36 37 38 39 40 41 42 43 44 45 46 47 48 49 50
000
ASUS43 KDMX 101707
RWRIA

WEATHER ROUNDUP FOR IOWA
NATIONAL WEATHER SERVICE DES MOINES IA
1200 PM CDT THU JUL 10 2014

NOTE: "FAIR" INDICATES FEW OR NO CLOUDS BELOW 12,000 FEET WITH NO
SIGNIFICANT WEATHER AND/OR OBSTRUCTIONS TO VISIBILITY.

* - THESE STATIONS ARE NOT NWS STATIONS...THUS NOT UNDER NWS
QUALITY CONTROL.  THEY ALSO DO NOT REPORT WEATHER SUCH
AS PRECIPITATION OR FOG.

IAZ001>003-012>014-020>022-031>034-043>046-101800-
   NORTHWEST IOWA

CITY           SKY/WX    TMP DP  RH WIND       PRES   REMARKS
CARROLL *      MOSUNNY   79  59  50 S16G25    30.07F HX  80
CHEROKEE *     SUNNY     79  66  65 S14       30.03F HX  81
DENISON *      SUNNY     79  64  61 S14G23    30.04F HAZE    HX  81
LE MARS *      SUNNY     81  66  61 S14G22    30.01F HX  83
ORANGE CITY *  SUNNY     79  63  57 S13       30.02S HX  80
SHELDON *      SUNNY     79  64  61 S20G26    30.01F HX  81
SIOUX CITY     SUNNY     80  67  64 S12       30.00F HX  82
SPENCER        LGT RAIN  80  61  52 S18G24    30.05F HX  81
STORM LAKE *   SUNNY     77  64  65 S15       30.06F
$$

IAZ055>058-069>071-079>083-090>094-101800-
   SOUTHWEST IOWA

CITY           SKY/WX    TMP DP  RH WIND       PRES   REMARKS
ATLANTIC *     SUNNY     79  61  53 S15G22    30.06F HX  80
AUDUBON *      SUNNY     81  64  57 S13G20    30.08F HX  82
CLARINDA *     SUNNY     79  63  57 S13G20    30.09S HX  80
COUNCIL BLFS * SUNNY     79  68  69 S17       30.04F HX  81
CRESTON *      SUNNY     77  63  61 S12G21    30.11S
HARLAN  *      SUNNY     79  64  61 S13G21    30.09F HX  81
LAMONI         MOSUNNY   77  62  59 S8G17     30.12F
RED OAK *      SUNNY     79  64  61 S15       30.06F HX  81
SHENANDOAH *   SUNNY     79  66  65 S17G24    30.07S HX  81
$$

IAZ047>049-059>061-072>074-084-101800-
   CENTRAL IOWA

CITY           SKY/WX    TMP DP  RH WIND       PRES   REMARKS
AMES           SUNNY     79  59  50 S13       30.10S HX  80
ANKENY *       SUNNY     79  61  53 S16       30.10S HX  80
CHARITON *     SUNNY     79  61  53 S12       30.12F HX  80
DES MOINES     PTSUNNY   80  58  46 S17G23    30.10S HX  80
GRINNELL*      SUNNY     77  59  53 S10       30.13S
KNOXVILLE *    SUNNY     77  61  57 S10G17    30.11S
MARSHALLTOWN   SUNNY     78  61  55 S14       30.11S HX  80
PELLA *        SUNNY     79  59  50 S12       30.13S HX  80
PERRY *          N/A     79  63  57 S13       30.10S HX  80
$$

IAZ004>006-015-016-023>025-035-036-101800-
   NORTH CENTRAL IOWA

CITY           SKY/WX    TMP DP  RH WIND       PRES   REMARKS
ALGONA *       SUNNY     79  59  50 S18       30.08F HX  80
CLARION *      SUNNY     79  59  50 S15G21    30.09S HX  80
ESTHERVILLE    SUNNY     79  59  50 SW16G26   30.06F HX  80
FORT DODGE *   SUNNY     79  61  53 S14       30.10S HX  80
MASON CITY     SUNNY     80  60  50 SW15      30.11S HX  81
FOREST CITY *  SUNNY     77  59  53 SW14      30.09F
IOWA FALLS *     N/A     77  59  53 S16       30.11F
$$

IAZ007>011-017>019-026>030-037>042-050>054-066-101800-
   NORTHEAST IOWA

CITY           SKY/WX    TMP DP  RH WIND       PRES   REMARKS
CEDAR RAPIDS   SUNNY     77  60  55 S8        30.13F
CHARLES CITY * SUNNY     77  63  61 S12       30.12S
CLINTON *      SUNNY     75  61  60 S6        30.19S
DECORAH *        N/A    N/A N/A N/A MISG        N/A
DUBUQUE        SUNNY     75  60  59 S13       30.16S
MONTICELLO *   SUNNY     77  59  53 SW10      30.14F
OELWEIN *      SUNNY     77  66  69 S13       30.14S
WATERLOO       SUNNY     80  59  48 S13       30.10F HX  81
$$

IAZ064-065-067-068-078-101800-
   EAST CENTRAL IOWA

CITY           SKY/WX    TMP DP  RH WIND       PRES   REMARKS
DAVENPORT      SUNNY     77  59  53 VRB6      30.16F
IOWA CITY      SUNNY     78  61  55 S8        30.15S HX  80
MT. PLEASANT * SUNNY     79  57  47 S5        30.15S HX  80
MUSCATINE *    SUNNY     79  57  47 S9        30.14F HX  80
QUAD CITIES    SUNNY     78  60  53 S6        30.15F
$$

IAZ062-063-075>077-085>089-095>099-101800-
   SOUTHEAST IOWA

CITY           SKY/WX    TMP DP  RH WIND       PRES   REMARKS
BURLINGTON     SUNNY     78  59  51 SE8       30.16R
FAIRFIELD *    SUNNY     79  61  53 S9        30.14F HX  80
FORT MADISON * SUNNY     79  59  50 S5        30.16F HX  80
KEOKUK *       SUNNY     79  61  53 S9        30.15S HX  80
OSKALOOSA *      N/A     79  59  50 S9        30.13F HX  80
CENTERVILLE *  SUNNY     77  63  61 S8        30.15F
OTTUMWA        SUNNY     77  61  57 S9        30.13S
WASHINGTON *   SUNNY     79  59  50 S7G13     30.14S HX  80
$$

ABBREVIATIONS USED IN REMARKS
   TC - TEMPERATURES IN CELSIUS
  WCI - WIND CHILL INDEX
   HX - HEAT INDEX
  VSB - VISIBILITY
$$



USA.gov is the U.S. government's official web portal to all federal, state and local government web resources and services.